Year,Month,Day,Hour,Minute,Value (Times are PST for temperature in C)
2012,04,23,09,30,13.20
2012,04,23,09,31,13.30
2012,04,23,09,32,13.30
2012,04,23,09,33,13.40
2012,04,23,09,34,13.40
2012,04,23,09,35,13.40
2012,04,23,09,36,13.40
2012,04,23,09,37,13.40
2012,04,23,09,38,13.40
2012,04,23,09,39,13.40
2012,04,23,09,40,13.40
2012,04,23,09,41,13.40
2012,04,23,09,42,13.40
2012,04,23,09,43,13.40
2012,04,23,09,44,13.30
2012,04,23,09,45,13.30
2012,04,23,09,46,13.30
2012,04,23,09,47,13.30
2012,04,23,09,48,13.30
2012,04,23,09,49,13.40
2012,04,23,09,50,13.40
2012,04,23,09,51,13.50
2012,04,23,09,52,13.50
2012,04,23,09,53,13.60
2012,04,23,09,54,13.70
2012,04,23,09,55,13.70
2012,04,23,09,56,13.80
2012,04,23,09,57,13.80
2012,04,23,09,58,13.80
2012,04,23,09,59,13.80
2012,04,23,10,00,13.80
2012,04,23,10,01,13.80
2012,04,23,10,02,13.80
2012,04,23,10,03,13.80
2012,04,23,10,04,13.80
2012,04,23,10,05,13.70
2012,04,23,10,06,13.70
2012,04,23,10,07,13.70
2012,04,23,10,08,13.70
2012,04,23,10,09,13.70
2012,04,23,10,10,13.70
2012,04,23,10,11,13.60
2012,04,23,10,12,13.60
2012,04,23,10,13,13.60
2012,04,23,10,14,13.50
2012,04,23,10,15,13.50
2012,04,23,10,16,13.50
2012,04,23,10,17,13.50
2012,04,23,10,18,13.60
2012,04,23,10,19,13.60
2012,04,23,10,20,13.60
2012,04,23,10,21,13.60
2012,04,23,10,22,13.60
2012,04,23,10,23,13.70
2012,04,23,10,24,13.70
2012,04,23,10,25,13.80
2012,04,23,10,26,13.90
2012,04,23,10,27,14.00
2012,04,23,10,28,14.10
2012,04,23,10,29,14.20
2012,04,23,10,30,14.20
2012,04,23,10,31,14.20
2012,04,23,10,32,14.20
2012,04,23,10,33,14.20
2012,04,23,10,34,14.20
2012,04,23,10,35,14.10
2012,04,23,10,36,14.10
2012,04,23,10,37,14.00
2012,04,23,10,38,14.00
2012,04,23,10,39,13.90
2012,04,23,10,40,13.90
2012,04,23,10,41,13.80
2012,04,23,10,42,13.80
2012,04,23,10,43,13.70
2012,04,23,10,44,13.60
2012,04,23,10,45,13.50
2012,04,23,10,46,13.50
2012,04,23,10,47,13.40
2012,04,23,10,48,13.40
2012,04,23,10,49,13.30
2012,04,23,10,50,13.30
2012,04,23,10,51,13.40
2012,04,23,10,52,13.40
2012,04,23,10,53,13.50
2012,04,23,10,54,13.50
2012,04,23,10,55,13.50
2012,04,23,10,56,13.50
2012,04,23,10,57,13.60
2012,04,23,10,58,13.60
2012,04,23,10,59,13.70
2012,04,23,11,00,13.70
2012,04,23,11,01,13.70
2012,04,23,11,02,13.80
2012,04,23,11,03,13.80
2012,04,23,11,04,13.80
2012,04,23,11,05,13.80
2012,04,23,11,06,13.80
2012,04,23,11,07,13.80
2012,04,23,11,08,13.80
2012,04,23,11,09,13.90
2012,04,23,11,10,13.90
2012,04,23,11,11,14.00
2012,04,23,11,12,14.10
2012,04,23,11,13,14.10
2012,04,23,11,14,14.10
2012,04,23,11,15,14.10
2012,04,23,11,16,14.10
2012,04,23,11,17,14.10
2012,04,23,11,18,14.10
2012,04,23,11,19,14.10
2012,04,23,11,20,14.20
2012,04,23,11,21,14.20
2012,04,23,11,22,14.30
2012,04,23,11,23,14.30
2012,04,23,11,24,14.40
2012,04,23,11,25,14.50
2012,04,23,11,26,14.50
2012,04,23,11,27,14.60
2012,04,23,11,28,14.60
2012,04,23,11,29,14.70
2012,04,23,11,30,14.70
2012,04,23,11,31,14.70
2012,04,23,11,32,14.60
2012,04,23,11,33,14.60
2012,04,23,11,34,14.60
2012,04,23,11,35,14.70
2012,04,23,11,36,14.70
2012,04,23,11,37,14.80
2012,04,23,11,38,14.90
2012,04,23,11,39,15.00
2012,04,23,11,40,15.10
2012,04,23,11,41,15.10
2012,04,23,11,42,15.10
2012,04,23,11,43,15.10
2012,04,23,11,44,15.10
2012,04,23,11,45,15.10
2012,04,23,11,46,15.10
2012,04,23,11,47,15.10
2012,04,23,11,48,15.20
2012,04,23,11,49,15.30
2012,04,23,11,50,15.40
2012,04,23,11,51,15.50
2012,04,23,11,52,15.50
2012,04,23,11,53,15.60
2012,04,23,11,54,15.60
2012,04,23,11,55,15.60
2012,04,23,11,56,15.60
2012,04,23,11,57,15.50
2012,04,23,11,58,15.50
2012,04,23,11,59,15.50
2012,04,23,12,00,15.50
2012,04,23,12,01,15.60
2012,04,23,12,02,15.60
2012,04,23,12,03,15.60
2012,04,23,12,04,15.60
2012,04,23,12,05,15.60
2012,04,23,12,06,15.50
2012,04,23,12,07,15.50
2012,04,23,12,08,15.40
2012,04,23,12,09,15.40
2012,04,23,12,10,15.40
2012,04,23,12,11,15.40
2012,04,23,12,12,15.40
2012,04,23,12,13,15.40
2012,04,23,12,14,15.30
2012,04,23,12,15,15.30
2012,04,23,12,16,15.30
2012,04,23,12,17,15.30
2012,04,23,12,18,15.30
2012,04,23,12,19,15.30
2012,04,23,12,20,15.30
2012,04,23,12,21,15.20
2012,04,23,12,22,15.20
2012,04,23,12,23,15.20
2012,04,23,12,24,15.30
2012,04,23,12,25,15.30
2012,04,23,12,26,15.30
2012,04,23,12,27,15.30
2012,04,23,12,28,15.30
2012,04,23,12,29,15.20
2012,04,23,12,30,15.20
2012,04,23,12,31,15.10
2012,04,23,12,32,15.00
2012,04,23,12,33,14.90
2012,04,23,12,34,14.90
2012,04,23,12,35,14.90
2012,04,23,12,36,14.80
2012,04,23,12,37,14.70
2012,04,23,12,38,14.60
2012,04,23,12,39,14.60
2012,04,23,12,40,14.50
2012,04,23,12,41,14.50
2012,04,23,12,42,14.50
2012,04,23,12,43,14.60
2012,04,23,12,44,14.60
2012,04,23,12,45,14.60
2012,04,23,12,46,14.70
2012,04,23,12,47,14.70
2012,04,23,12,48,14.70
2012,04,23,12,49,14.80
2012,04,23,12,50,14.80
2012,04,23,12,51,14.90
2012,04,23,12,52,15.00
2012,04,23,12,53,15.10
2012,04,23,12,54,15.30
2012,04,23,12,55,15.40
2012,04,23,12,56,15.40
2012,04,23,12,57,15.40
2012,04,23,12,58,15.50
2012,04,23,12,59,15.50
2012,04,23,13,00,15.60
2012,04,23,13,01,15.60
2012,04,23,13,02,15.60
2012,04,23,13,03,15.60
2012,04,23,13,04,15.60
2012,04,23,13,05,15.70
2012,04,23,13,06,15.80
2012,04,23,13,07,15.80
2012,04,23,13,08,16.00
2012,04,23,13,09,16.10
2012,04,23,13,10,16.10
2012,04,23,13,11,16.20
2012,04,23,13,12,16.20
2012,04,23,13,13,16.20
2012,04,23,13,14,16.20
2012,04,23,13,15,16.20
2012,04,23,13,16,16.30
2012,04,23,13,17,16.30
2012,04,23,13,18,16.30
2012,04,23,13,19,16.30
2012,04,23,13,20,16.40
2012,04,23,13,21,16.40
2012,04,23,13,22,16.40
2012,04,23,13,23,16.40
2012,04,23,13,24,16.40
2012,04,23,13,25,16.40
2012,04,23,13,26,16.40
2012,04,23,13,27,16.30
2012,04,23,13,28,16.30
2012,04,23,13,29,16.20
2012,04,23,13,30,16.10
2012,04,23,13,31,16.10
2012,04,23,13,32,16.10
2012,04,23,13,33,16.00
2012,04,23,13,34,16.00
2012,04,23,13,35,16.00
2012,04,23,13,36,16.10
2012,04,23,13,37,16.10
2012,04,23,13,38,16.10
2012,04,23,13,39,16.20
2012,04,23,13,40,16.20
2012,04,23,13,41,16.30
2012,04,23,13,42,16.30
2012,04,23,13,43,16.30
2012,04,23,13,44,16.40
2012,04,23,13,45,16.40
2012,04,23,13,46,16.40
2012,04,23,13,47,16.50
2012,04,23,13,48,16.50
2012,04,23,13,49,16.60
2012,04,23,13,50,16.60
2012,04,23,13,51,16.70
2012,04,23,13,52,16.80
2012,04,23,13,53,16.80
2012,04,23,13,54,16.80
2012,04,23,13,55,16.70
2012,04,23,13,56,16.70
2012,04,23,13,57,16.70
2012,04,23,13,58,16.70
2012,04,23,13,59,16.60
2012,04,23,14,00,16.60
2012,04,23,14,01,16.60
2012,04,23,14,02,16.50
2012,04,23,14,03,16.50
2012,04,23,14,04,16.50
2012,04,23,14,05,16.50
2012,04,23,14,06,16.50
2012,04,23,14,07,16.50
2012,04,23,14,08,16.50
2012,04,23,14,09,16.40
2012,04,23,14,10,16.30
2012,04,23,14,11,16.30
2012,04,23,14,12,16.20
2012,04,23,14,13,16.10
2012,04,23,14,14,16.00
2012,04,23,14,15,16.00
2012,04,23,14,16,16.00
2012,04,23,14,17,16.00
2012,04,23,14,18,15.90
2012,04,23,14,19,15.80
2012,04,23,14,20,15.80
2012,04,23,14,21,15.80
2012,04,23,14,22,15.80
2012,04,23,14,23,15.70
2012,04,23,14,24,15.70
2012,04,23,14,25,15.60
2012,04,23,14,26,15.60
2012,04,23,14,27,15.60
2012,04,23,14,28,15.60
2012,04,23,14,29,15.60
2012,04,23,14,30,15.60
2012,04,23,14,31,15.60
2012,04,23,14,32,15.60
2012,04,23,14,33,15.60
2012,04,23,14,34,15.50
2012,04,23,14,35,15.50
2012,04,23,14,36,15.40
2012,04,23,14,37,15.40
2012,04,23,14,38,15.40
2012,04,23,14,39,15.40
2012,04,23,14,40,15.40
2012,04,23,14,41,15.40
2012,04,23,14,42,15.40
2012,04,23,14,43,15.40
2012,04,23,14,44,15.40
2012,04,23,14,45,15.40
2012,04,23,14,46,15.30
2012,04,23,14,47,15.30
2012,04,23,14,48,15.30
2012,04,23,14,49,15.30
2012,04,23,14,50,15.30
2012,04,23,14,51,15.40
2012,04,23,14,52,15.40
2012,04,23,14,53,15.50
2012,04,23,14,54,15.50
2012,04,23,14,55,15.50
2012,04,23,14,56,15.60
2012,04,23,14,57,15.60
2012,04,23,14,58,15.70
2012,04,23,14,59,15.80
2012,04,23,15,00,15.90
2012,04,23,15,01,15.90
2012,04,23,15,02,16.00
2012,04,23,15,03,16.00
2012,04,23,15,04,16.00
2012,04,23,15,05,16.00
2012,04,23,15,06,16.10
2012,04,23,15,07,16.10
2012,04,23,15,08,16.10
2012,04,23,15,09,16.10
2012,04,23,15,10,16.10
2012,04,23,15,11,16.10
2012,04,23,15,12,16.10
2012,04,23,15,13,16.10
2012,04,23,15,14,16.10
2012,04,23,15,15,16.20
2012,04,23,15,16,16.20
2012,04,23,15,17,16.30
2012,04,23,15,18,16.30
2012,04,23,15,19,16.20
2012,04,23,15,20,16.20
2012,04,23,15,21,16.20
2012,04,23,15,22,16.20
2012,04,23,15,23,16.10
2012,04,23,15,24,16.00
2012,04,23,15,25,16.00
2012,04,23,15,26,16.00
2012,04,23,15,27,16.00
2012,04,23,15,28,16.00
2012,04,23,15,29,16.00
2012,04,23,15,30,16.10
2012,04,23,15,31,16.10
2012,04,23,15,32,16.20
2012,04,23,15,33,16.20
2012,04,23,15,34,16.20
2012,04,23,15,35,16.10
2012,04,23,15,36,16.10
2012,04,23,15,37,16.10
2012,04,23,15,38,16.10
2012,04,23,15,39,16.10
2012,04,23,15,40,16.00
2012,04,23,15,41,15.90
2012,04,23,15,42,15.90
2012,04,23,15,43,15.90
2012,04,23,15,44,15.90
2012,04,23,15,45,15.90
2012,04,23,15,46,15.90
2012,04,23,15,47,16.00
2012,04,23,15,48,16.00
2012,04,23,15,49,16.10
2012,04,23,15,50,16.10
2012,04,23,15,51,16.00
2012,04,23,15,52,16.00
2012,04,23,15,53,15.90
2012,04,23,15,54,15.90
2012,04,23,15,55,15.80
2012,04,23,15,56,15.70
2012,04,23,15,57,15.70
2012,04,23,15,58,15.60
2012,04,23,15,59,15.50
2012,04,23,16,00,15.40
2012,04,23,16,01,15.40
2012,04,23,16,02,15.30
2012,04,23,16,03,15.30
2012,04,23,16,04,15.30
2012,04,23,16,05,15.40
2012,04,23,16,06,15.40
2012,04,23,16,07,15.50
2012,04,23,16,08,15.60
2012,04,23,16,09,15.70
2012,04,23,16,10,15.80
2012,04,23,16,11,15.80
2012,04,23,16,12,15.90
2012,04,23,16,13,16.00
2012,04,23,16,14,16.10
2012,04,23,16,15,16.20
2012,04,23,16,16,16.20
2012,04,23,16,17,16.30
2012,04,23,16,18,16.30
2012,04,23,16,19,16.40
2012,04,23,16,20,16.40
2012,04,23,16,21,16.40
2012,04,23,16,22,16.50
2012,04,23,16,23,16.50
2012,04,23,16,24,16.50
2012,04,23,16,25,16.40
2012,04,23,16,26,16.40
2012,04,23,16,27,16.30
2012,04,23,16,28,16.30
2012,04,23,16,29,16.40
2012,04,23,16,30,16.40
2012,04,23,16,31,16.40
2012,04,23,16,32,16.40
2012,04,23,16,33,16.50
2012,04,23,16,34,16.50
2012,04,23,16,35,16.50
2012,04,23,16,36,16.50
2012,04,23,16,37,16.50
2012,04,23,16,38,16.60
2012,04,23,16,39,16.60
2012,04,23,16,40,16.60
2012,04,23,16,41,16.50
2012,04,23,16,42,16.50
2012,04,23,16,43,16.50
2012,04,23,16,44,16.40
2012,04,23,16,45,16.40
2012,04,23,16,46,16.40
2012,04,23,16,47,16.40
2012,04,23,16,48,16.30
2012,04,23,16,49,16.30
2012,04,23,16,50,16.30
2012,04,23,16,51,16.30
2012,04,23,16,52,16.30
2012,04,23,16,53,16.40
2012,04,23,16,54,16.40
2012,04,23,16,55,16.40
2012,04,23,16,56,16.30
2012,04,23,16,57,16.30
2012,04,23,16,58,16.30
2012,04,23,16,59,16.30
2012,04,23,17,00,16.30
2012,04,23,17,01,16.30
2012,04,23,17,02,16.40
2012,04,23,17,03,16.40
2012,04,23,17,04,16.40
2012,04,23,17,05,16.40
2012,04,23,17,06,16.40
2012,04,23,17,07,16.50
2012,04,23,17,08,16.50
2012,04,23,17,09,16.60
2012,04,23,17,10,16.60
2012,04,23,17,11,16.60
2012,04,23,17,12,16.60
2012,04,23,17,13,16.70
2012,04,23,17,14,16.70
2012,04,23,17,15,16.80
2012,04,23,17,16,16.80
2012,04,23,17,17,16.80
2012,04,23,17,18,16.80
2012,04,23,17,19,16.80
2012,04,23,17,20,16.80
2012,04,23,17,21,16.80
2012,04,23,17,22,16.80
2012,04,23,17,23,16.80
2012,04,23,17,24,16.80
2012,04,23,17,25,16.80
2012,04,23,17,26,16.80
2012,04,23,17,27,16.80
2012,04,23,17,28,16.80
2012,04,23,17,29,16.80
2012,04,23,17,30,16.80
2012,04,23,17,31,16.80
2012,04,23,17,32,16.70
2012,04,23,17,33,16.70
2012,04,23,17,34,16.70
2012,04,23,17,35,16.70
2012,04,23,17,36,16.70
2012,04,23,17,37,16.70
2012,04,23,17,38,16.70
2012,04,23,17,39,16.70
2012,04,23,17,40,16.70
2012,04,23,17,41,16.70
2012,04,23,17,42,16.70
2012,04,23,17,43,16.70
2012,04,23,17,44,16.80
2012,04,23,17,45,16.80
2012,04,23,17,46,16.80
2012,04,23,17,47,16.80
2012,04,23,17,48,16.80
2012,04,23,17,49,16.80
2012,04,23,17,50,16.90
2012,04,23,17,51,16.90
2012,04,23,17,52,16.90
2012,04,23,17,53,16.90
2012,04,23,17,54,16.80
2012,04,23,17,55,16.80
2012,04,23,17,56,16.80
2012,04,23,17,57,16.80
2012,04,23,17,58,16.80
2012,04,23,17,59,16.80
2012,04,23,18,00,16.80
2012,04,23,18,01,16.70
2012,04,23,18,02,16.70
2012,04,23,18,03,16.70
2012,04,23,18,04,16.70
2012,04,23,18,05,16.70
2012,04,23,18,06,16.70
2012,04,23,18,07,16.70
2012,04,23,18,08,16.70
2012,04,23,18,09,16.60
2012,04,23,18,10,16.60
2012,04,23,18,11,16.60
2012,04,23,18,12,16.60
2012,04,23,18,13,16.60
2012,04,23,18,14,16.60
2012,04,23,18,15,16.70
2012,04,23,18,16,16.70
2012,04,23,18,17,16.70
2012,04,23,18,18,16.70
2012,04,23,18,19,16.70
2012,04,23,18,20,16.70
2012,04,23,18,21,16.70
2012,04,23,18,22,16.70
2012,04,23,18,23,16.70
2012,04,23,18,24,16.70
2012,04,23,18,25,16.70
2012,04,23,18,26,16.70
2012,04,23,18,27,16.70
2012,04,23,18,28,16.70
2012,04,23,18,29,16.70
2012,04,23,18,30,16.70
2012,04,23,18,31,16.70
2012,04,23,18,32,16.70
2012,04,23,18,33,16.70
2012,04,23,18,34,16.70
2012,04,23,18,35,16.70
2012,04,23,18,36,16.70
2012,04,23,18,37,16.70
2012,04,23,18,38,16.70
2012,04,23,18,39,16.70
2012,04,23,18,40,16.70
2012,04,23,18,41,16.60
2012,04,23,18,42,16.60
2012,04,23,18,43,16.60
2012,04,23,18,44,16.60
2012,04,23,18,45,16.50
2012,04,23,18,46,16.50
2012,04,23,18,47,16.50
2012,04,23,18,48,16.50
2012,04,23,18,49,16.40
2012,04,23,18,50,16.40
2012,04,23,18,51,16.30
2012,04,23,18,52,16.30
2012,04,23,18,53,16.30
2012,04,23,18,54,16.20
2012,04,23,18,55,16.20
2012,04,23,18,56,16.10
2012,04,23,18,57,16.10
2012,04,23,18,58,16.10
2012,04,23,18,59,16.00
2012,04,23,19,00,16.00
2012,04,23,19,01,15.90
2012,04,23,19,02,15.90
2012,04,23,19,03,15.80
2012,04,23,19,04,15.70
2012,04,23,19,05,15.70
2012,04,23,19,06,15.60
2012,04,23,19,07,15.50
2012,04,23,19,08,15.40
2012,04,23,19,09,15.40
2012,04,23,19,10,15.30
2012,04,23,19,11,15.20
2012,04,23,19,12,15.10
2012,04,23,19,13,15.00
2012,04,23,19,14,15.00
2012,04,23,19,15,14.90
2012,04,23,19,16,14.80
2012,04,23,19,17,14.80
2012,04,23,19,18,14.70
2012,04,23,19,19,14.60
2012,04,23,19,20,14.60
2012,04,23,19,21,14.50
2012,04,23,19,22,14.50
2012,04,23,19,23,14.40
2012,04,23,19,24,14.40
2012,04,23,19,25,14.40
2012,04,23,19,26,14.30
2012,04,23,19,27,14.30
2012,04,23,19,28,14.30
2012,04,23,19,29,14.20
2012,04,23,19,30,14.20
2012,04,23,19,31,14.20
2012,04,23,19,32,14.20
2012,04,23,19,33,14.10
2012,04,23,19,34,14.10
2012,04,23,19,35,14.10
2012,04,23,19,36,14.10
2012,04,23,19,37,14.10
2012,04,23,19,38,14.10
2012,04,23,19,39,14.10
2012,04,23,19,40,14.00
2012,04,23,19,41,13.90
2012,04,23,19,42,13.90
2012,04,23,19,43,13.80
2012,04,23,19,44,13.70
2012,04,23,19,45,13.60
2012,04,23,19,46,13.40
2012,04,23,19,47,13.30
2012,04,23,19,48,13.10
2012,04,23,19,49,12.90
2012,04,23,19,50,12.80
2012,04,23,19,51,12.60
2012,04,23,19,52,12.40
2012,04,23,19,53,12.10
2012,04,23,19,54,12.00
2012,04,23,19,55,11.80
2012,04,23,19,56,11.80
2012,04,23,19,57,11.70
2012,04,23,19,58,11.70
2012,04,23,19,59,11.60
2012,04,23,20,00,11.60
2012,04,23,20,01,11.60
2012,04,23,20,02,11.60
2012,04,23,20,03,11.60
2012,04,23,20,04,11.60
2012,04,23,20,05,11.60
2012,04,23,20,06,11.60
2012,04,23,20,07,11.70
2012,04,23,20,08,11.70
2012,04,23,20,09,11.70
2012,04,23,20,10,11.80
2012,04,23,20,11,11.80
2012,04,23,20,12,11.80
2012,04,23,20,13,11.80
2012,04,23,20,14,11.90
2012,04,23,20,15,11.90
2012,04,23,20,16,11.90
2012,04,23,20,17,12.00
2012,04,23,20,18,12.00
2012,04,23,20,19,12.10
2012,04,23,20,20,12.10
2012,04,23,20,21,12.10
2012,04,23,20,22,12.20
2012,04,23,20,23,12.20
2012,04,23,20,24,12.20
2012,04,23,20,25,12.20
2012,04,23,20,26,12.20
2012,04,23,20,27,12.20
2012,04,23,20,28,12.20
2012,04,23,20,29,12.20
2012,04,23,20,30,12.20
2012,04,23,20,31,12.20
2012,04,23,20,32,12.20
2012,04,23,20,33,12.20
2012,04,23,20,34,12.10
2012,04,23,20,35,12.10
2012,04,23,20,36,12.00
2012,04,23,20,37,12.00
2012,04,23,20,38,11.90
2012,04,23,20,39,11.90
2012,04,23,20,40,11.80
2012,04,23,20,41,11.80
2012,04,23,20,42,11.70
2012,04,23,20,43,11.70
2012,04,23,20,44,11.60
2012,04,23,20,45,11.50
2012,04,23,20,46,11.50
2012,04,23,20,47,11.40
2012,04,23,20,48,11.30
2012,04,23,20,49,11.30
2012,04,23,20,50,11.20
2012,04,23,20,51,11.20
2012,04,23,20,52,11.10
2012,04,23,20,53,11.10
2012,04,23,20,54,11.00
2012,04,23,20,55,10.90
2012,04,23,20,56,10.90
2012,04,23,20,57,10.80
2012,04,23,20,58,10.80
2012,04,23,20,59,10.80
2012,04,23,21,00,10.70
2012,04,23,21,01,10.70
2012,04,23,21,02,10.70
2012,04,23,21,03,10.60
2012,04,23,21,04,10.60
2012,04,23,21,05,10.60
2012,04,23,21,06,10.50
2012,04,23,21,07,10.50
2012,04,23,21,08,10.40
2012,04,23,21,09,10.40
2012,04,23,21,10,10.40
2012,04,23,21,11,10.40
2012,04,23,21,12,10.40
2012,04,23,21,13,10.40
2012,04,23,21,14,10.40
2012,04,23,21,15,10.30
2012,04,23,21,16,10.30
2012,04,23,21,17,10.30
2012,04,23,21,18,10.30
2012,04,23,21,19,10.30
2012,04,23,21,20,10.40
2012,04,23,21,21,10.40
2012,04,23,21,22,10.40
2012,04,23,21,23,10.40
2012,04,23,21,24,10.40
2012,04,23,21,25,10.40
2012,04,23,21,26,10.40
2012,04,23,21,27,10.40
2012,04,23,21,28,10.40
2012,04,23,21,29,10.40
2012,04,23,21,30,10.40
2012,04,23,21,31,10.50
2012,04,23,21,32,10.50
2012,04,23,21,33,10.50
2012,04,23,21,34,10.50
2012,04,23,21,35,10.50
2012,04,23,21,36,10.50
2012,04,23,21,37,10.50
2012,04,23,21,38,10.50
2012,04,23,21,39,10.60
2012,04,23,21,40,10.60
2012,04,23,21,41,10.60
2012,04,23,21,42,10.60
2012,04,23,21,43,10.60
2012,04,23,21,44,10.70
2012,04,23,21,45,10.70
2012,04,23,21,46,10.70
2012,04,23,21,47,10.70
2012,04,23,21,48,10.70
2012,04,23,21,49,10.70
2012,04,23,21,50,10.80
2012,04,23,21,51,10.80
2012,04,23,21,52,10.80
2012,04,23,21,53,10.80
2012,04,23,21,54,10.80
2012,04,23,21,55,10.90
2012,04,23,21,56,10.90
2012,04,23,21,57,10.90
2012,04,23,21,58,11.00
2012,04,23,21,59,11.00
2012,04,23,22,00,11.00
2012,04,23,22,01,11.00
2012,04,23,22,02,11.10
2012,04,23,22,03,11.10
2012,04,23,22,04,11.10
2012,04,23,22,05,11.10
2012,04,23,22,06,11.10
2012,04,23,22,07,11.20
2012,04,23,22,08,11.20
2012,04,23,22,09,11.20
2012,04,23,22,10,11.20
2012,04,23,22,11,11.20
2012,04,23,22,12,11.30
2012,04,23,22,13,11.30
2012,04,23,22,14,11.30
2012,04,23,22,15,11.30
2012,04,23,22,16,11.30
2012,04,23,22,17,11.30
2012,04,23,22,18,11.30
2012,04,23,22,19,11.30
2012,04,23,22,20,11.30
2012,04,23,22,21,11.30
2012,04,23,22,22,11.30
2012,04,23,22,23,11.30
2012,04,23,22,24,11.30
2012,04,23,22,25,11.30
2012,04,23,22,26,11.30
2012,04,23,22,27,11.30
2012,04,23,22,28,11.30
2012,04,23,22,29,11.30
2012,04,23,22,30,11.30
2012,04,23,22,31,11.30
2012,04,23,22,32,11.30
2012,04,23,22,33,11.30
2012,04,23,22,34,11.30
2012,04,23,22,35,11.30
2012,04,23,22,36,11.30
2012,04,23,22,37,11.30
2012,04,23,22,38,11.30
2012,04,23,22,39,11.30
2012,04,23,22,40,11.20
2012,04,23,22,41,11.20
2012,04,23,22,42,11.20
2012,04,23,22,43,11.20
2012,04,23,22,44,11.20
2012,04,23,22,45,11.20
2012,04,23,22,46,11.20
2012,04,23,22,47,11.20
2012,04,23,22,48,11.20
2012,04,23,22,49,11.10
2012,04,23,22,50,11.10
2012,04,23,22,51,11.10
2012,04,23,22,52,11.10
2012,04,23,22,53,11.00
2012,04,23,22,54,11.00
2012,04,23,22,55,10.90
2012,04,23,22,56,10.90
2012,04,23,22,57,10.90
2012,04,23,22,58,10.80
2012,04,23,22,59,10.80
2012,04,23,23,00,10.80
2012,04,23,23,01,10.80
2012,04,23,23,02,10.80
2012,04,23,23,03,10.80
2012,04,23,23,04,10.80
2012,04,23,23,05,10.80
2012,04,23,23,06,10.80
2012,04,23,23,07,10.80
2012,04,23,23,08,10.80
2012,04,23,23,09,10.80
2012,04,23,23,10,10.80
2012,04,23,23,11,10.80
2012,04,23,23,12,10.80
2012,04,23,23,13,10.80
2012,04,23,23,14,10.80
2012,04,23,23,15,10.80
2012,04,23,23,16,10.80
2012,04,23,23,17,10.80
2012,04,23,23,18,10.70
2012,04,23,23,19,10.70
2012,04,23,23,20,10.70
2012,04,23,23,21,10.70
2012,04,23,23,22,10.70
2012,04,23,23,23,10.70
2012,04,23,23,24,10.70
2012,04,23,23,25,10.70
2012,04,23,23,26,10.60
2012,04,23,23,27,10.60
2012,04,23,23,28,10.60
2012,04,23,23,29,10.50
2012,04,23,23,30,10.50
2012,04,23,23,31,10.40
2012,04,23,23,32,10.40
2012,04,23,23,33,10.40
2012,04,23,23,34,10.40
2012,04,23,23,35,10.30
2012,04,23,23,36,10.30
2012,04,23,23,37,10.30
2012,04,23,23,38,10.30
2012,04,23,23,39,10.30
2012,04,23,23,40,10.30
2012,04,23,23,41,10.30
2012,04,23,23,42,10.30
2012,04,23,23,43,10.30
2012,04,23,23,44,10.20
2012,04,23,23,45,10.20
2012,04,23,23,46,10.20
2012,04,23,23,47,10.20
2012,04,23,23,48,10.20
2012,04,23,23,49,10.30
2012,04,23,23,50,10.30
2012,04,23,23,51,10.30
2012,04,23,23,52,10.30
2012,04,23,23,53,10.40
2012,04,23,23,54,10.40
2012,04,23,23,55,10.40
2012,04,23,23,56,10.40
2012,04,23,23,57,10.40
2012,04,23,23,58,10.40
2012,04,23,23,59,10.40
